This demonstration page uses our WeatherBlox Daily Observations layout. Learn more.

Left ArrowRight Arrow

30.21309, -93.2044

Hourly Observations for July 26, 2022

Temp ( °F °C ) Dew Point ( °F °C ) Humidity (%) Winds ( mph kmh ) Pressure ( in mb ) Visibility ( mi km ) Precip ( " mm )
12:15 am 00:15 Clear 79 26 75 24 89 89 SE 6 9 30.04 1017 10 16 0.00 0.00
12:35 am 00:35 Clear 78 25.7 75 24 90 90 SSE 6 9 30.03 1017 10 16 0.00 0.00
12:55 am 00:55 Clear 78 25.6 75 24 91 91 SSE 6 9 30.03 1017 10 16 0.00 0.00
1:15 am 01:15 Clear 77 25.2 75 23.9 93 93 SE 5 7 30.03 1017 10 16 0.00 0.00
1:35 am 01:35 Clear 78 25.5 75 24.1 92 92 ESE 3 6 30.03 1017 10 16 0.00 0.00
1:55 am 01:55 Partly Cloudy 78 25.3 75 24.1 93 93 E 3 6 30.03 1017 10 16 0.00 0.00
2:15 am 02:15 Partly Cloudy 78 25.4 75 24.1 93 93 E 3 6 30.02 1017 10 16 0.00 0.00
2:35 am 02:35 Clear 77 25 75 23.8 93 93 ESE 3 6 30.01 1016 10 16 0.00 0.00
2:55 am 02:55 Clear 76 24.7 74 23.6 94 94 E 5 7 30.01 1016 10 16 0.00 0.00
3:15 am 03:15 Clear 77 24.9 75 23.9 94 94 E 3 6 30.01 1016 10 16 0.00 0.00
3:35 am 03:35 Clear 77 25 75 23.9 94 94 E 6 9 30.01 1016 10 16 0.00 0.00
3:55 am 03:55 Partly Cloudy 77 24.8 75 23.8 94 94 ESE 3 6 30.01 1016 10 16 0.00 0.00
4:15 am 04:15 Mostly Cloudy with Rain 77 25.2 76 24.2 94 94 SE 3 6 30.01 1016 5 8 0.00 0.00
4:35 am 04:35 Partly Cloudy 78 25.6 76 24.4 93 93 ESE 5 7 30.01 1016 10 16 0.00 0.00
4:55 am 04:55 Mostly Cloudy with Light Rain 78 25.5 76 24.4 94 94 E 5 7 30.01 1016 10 16 0.00 0.00
5:15 am 05:15 Partly Cloudy 78 25.3 76 24.2 94 94 ESE 5 7 30.01 1016 10 16 0.00 0.00
5:35 am 05:35 Partly Cloudy 77 25.1 75 24.1 94 94 E 6 9 30.02 1017 10 16 0.00 0.00
6:00 am 06:00 Partly Cloudy 79 26 75 24 89 89 Calm 30.02 1017 10 16 0.00 0.00
6:50 am 06:50 Mostly Sunny 77 25 75 24 94 94 Calm 30.03 1017 10 16 0.00 0.00
7:53 am 07:53 Mostly Sunny 81 27 77 25 89 89 Calm 30.05 1018 10 16 0.00 0.00
8:50 am 08:50 Partly Cloudy 84 29 75 24 74 74 Calm 30.06 1018 10 16 0.00 0.00
9:55 am 09:55 Mostly Cloudy 88 31 77 25 70 70 Calm 30.07 1018 10 16 0.00 0.00
10:45 am 10:45 Mostly Cloudy with Showers 81 27 73 23 79 79 WSW 14 22 30.09 1019 6 10 0.00 0.00
11:50 am 11:50 Partly Cloudy 88 31 73 23 62 62 WSW 3 6 30.08 1019 10 16 0.00 0.00
12:55 pm 12:55 Partly Cloudy 91 33 79 26 67 67 WSW 3 6 30.06 1018 10 16 0.00 0.00
1:55 pm 13:55 Partly Cloudy 91 33 72 22 52 52 SSE 13 20 30.04 1017 10 16 0.00 0.00
2:51 pm 14:51 Mostly Cloudy 90 32 77 25 67 67 SSE 13 20 30.03 1017 10 16 0.00 0.00
4:10 pm 16:10 Mostly Cloudy with Rain 84 29 73 23 70 70 SSW 18 30 30.02 1017 2 3 0.00 0.00
4:22 pm 16:22 Mostly Cloudy with Light Rain 82 28 75 24 79 79 SSW 6 9 30.02 1017 7 11 0.00 0.00
4:50 pm 16:50 Partly Cloudy with Light Rain 84 29 77 25 79 79 ESE 6 9 30.02 1017 7 11 0.00 0.00
5:52 pm 17:52 Partly Cloudy 86 30 75 24 70 70 S 10 17 29.99 1016 10 16 0.00 0.00
6:47 pm 18:47 Partly Cloudy 88 31 75 24 66 66 S 10 17 29.99 1016 10 16 0.00 0.00
7:52 pm 19:52 Partly Cloudy 84 29 75 24 74 74 SSE 8 13 30.00 1016 10 16 0.00 0.00
8:52 pm 20:52 Mostly Clear 81 27 75 24 84 84 SSE 8 13 30.01 1016 10 16 0.00 0.00
9:56 pm 21:56 Mostly Clear 81 27 75 24 84 84 SSE 6 9 30.03 1017 10 16 0.00 0.00
10:15 pm 22:15 Clear 80 26.5 75 23.8 85 85 SE 3 6 30.04 1017 10 16 0.00 0.00
10:35 pm 22:35 Clear 79 26.2 75 23.9 87 87 SE 6 9 30.04 1017 10 16 0.00 0.00
10:55 pm 22:55 Clear 79 26.1 75 24.1 89 89 SE 5 7 30.04 1017 10 16 0.00 0.00
11:15 pm 23:15 Clear 78 25.8 75 24 90 90 SSE 3 6 30.04 1017 10 16 0.00 0.00
11:35 pm 23:35 Clear 78 25.7 75 24.1 91 91 SSE 5 7 30.04 1017 10 16 0.00 0.00
11:55 pm 23:55 Clear 78 25.3 75 23.9 92 92 ESE 3 6 30.03 1017 10 16 0.00 0.00

Powered by AerisWeather